Change the Weather History Date:

Friday, September 6, 2013

  Actual Average (KMWA) Record (KMWA)
Temperature  
Mean Temperature 72 °F -  
Max Temperature 87 °F 83 °F 95 °F (1998)
Min Temperature 57 °F 59 °F 33 °F (1996)
Cooling Degree Days 7    
Growing Degree Days 22 (Base 50)    
Moisture  
Dew Point 64 °F    
Average Humidity 78    
Maximum Humidity 100    
Minimum Humidity 40    
Precipitation  
Precipitation 0.00 in - - ()
Sea Level Pressure  
Sea Level Pressure 30.14 in    
Wind  
Wind Speed 1 mph (SE)    
Max Wind Speed 7 mph    
Max Gust Speed -    
Visibility 7 miles    
Events Fog    
Averages and records for this station are not official NWS values.
T = Trace of Precipitation, MM = Missing Value Source: NWS Daily Summary

Daily Weather History Graph

Daily Weather History Graph

Search for Another Location

Airport or City:

Trip Planner

Search our weather history database for the weather conditions in past years. The results will help you decide how hot, cold, wet, or windy it might be!

Date:

Astronomy

Sep. 06, 2013 Rise Set
Actual Time 6:28 AM CDT 7:15 PM CDT
Civil Twilight 6:02 AM CDT 7:42 PM CDT
Nautical Twilight 5:30 AM CDT 8:13 PM CDT
Astronomical Twilight 4:57 AM CDT 8:45 PM CDT
Moon 7:38 AM CDT (9/6) 7:42 PM CDT (9/6)
Length of Visible Light 13h 40m
Length of Day
12h 46m
New Moon, 2% of the Moon is Illuminated
Sep 6
New Moon
Sep 12
First Quarter
Sep 19
Full
Sep 26
Last Quarter
Oct 4
New

Hourly Weather History & Observations

Time (CDT) Temp. Heat Index Dew Point Humidity Pressure Visibility Wind Dir Wind Speed Gust Speed Precip Events Conditions
12:15 AM 62.4 °F - 62.4 °F 100% 30.19 in 10.0 mi Calm Calm - N/A   Clear
12:35 AM 62.4 °F - 62.4 °F 100% 30.19 in 5.0 mi Calm Calm - N/A   Clear
12:55 AM 63.3 °F - 63.3 °F 100% 30.19 in 5.0 mi Calm Calm - N/A   Clear
1:15 AM 63.0 °F - 63.0 °F 100% 30.18 in 7.0 mi Calm Calm - N/A   Clear
1:35 AM 62.8 °F - 62.8 °F 100% 30.18 in 7.0 mi Calm Calm - N/A   Clear
1:55 AM 62.6 °F - 62.6 °F 100% 30.18 in 3.0 mi Calm Calm - N/A   Clear
2:15 AM 62.1 °F - 62.1 °F 100% 30.17 in 5.0 mi Calm Calm - N/A   Clear
2:35 AM 63.0 °F - 63.0 °F 100% 30.17 in 7.0 mi Calm Calm - N/A   Clear
2:55 AM 62.6 °F - 62.6 °F 100% 30.17 in 7.0 mi Calm Calm - N/A   Clear
3:15 AM 63.0 °F - 63.0 °F 100% 30.17 in 7.0 mi Calm Calm - N/A   Clear
3:35 AM 62.4 °F - 62.4 °F 100% 30.18 in 7.0 mi Calm Calm - N/A   Clear
3:55 AM 61.7 °F - 61.7 °F 100% 30.18 in 5.0 mi Calm Calm - N/A   Clear
4:15 AM 61.0 °F - 61.0 °F 100% 30.17 in 0.8 mi Calm Calm - N/A   Mist
4:35 AM 60.4 °F - 60.4 °F 100% 30.17 in 5.0 mi Calm Calm - N/A   Clear
4:55 AM 60.3 °F - 60.3 °F 100% 30.17 in 5.0 mi Calm Calm - N/A   Clear
5:15 AM 60.1 °F - 60.1 °F 100% 30.17 in 2.5 mi Calm Calm - N/A   Clear
5:35 AM 59.9 °F - 59.9 °F 100% 30.17 in 0.5 mi Calm Calm - N/A Fog Fog
5:55 AM 59.4 °F - 59.4 °F 100% 30.17 in 0.8 mi Calm Calm - N/A   Overcast
6:15 AM 58.6 °F - 58.6 °F 100% 30.17 in 0.2 mi Calm Calm - N/A Fog Fog
6:35 AM 59.0 °F - 59.0 °F 100% 30.18 in 0.2 mi Calm Calm - N/A Fog Fog
6:55 AM 57.9 °F - 57.9 °F 100% 30.18 in 0.5 mi Calm Calm - N/A Fog Fog
7:15 AM 59.2 °F - 59.2 °F 100% 30.19 in 4.0 mi Calm Calm - N/A   Clear
7:35 AM 61.2 °F - 61.2 °F 100% 30.19 in 4.0 mi Calm Calm - N/A   Clear
7:55 AM 63.3 °F - 63.3 °F 100% 30.19 in 7.0 mi Calm Calm - N/A   Clear
8:15 AM 65.5 °F - 65.5 °F 100% 30.20 in 7.0 mi Calm Calm - N/A   Clear
8:35 AM 68.4 °F - 67.3 °F 96% 30.20 in 7.0 mi Calm Calm - N/A   Clear
8:55 AM 71.1 °F - 67.8 °F 89% 30.20 in 7.0 mi Calm Calm - N/A   Clear
9:15 AM 73.9 °F - 67.3 °F 80% 30.20 in 10.0 mi East 4.6 mph - N/A   Clear
9:35 AM 75.9 °F - 67.1 °F 74% 30.20 in 10.0 mi East 3.5 mph - N/A   Clear
9:55 AM 77.2 °F - 66.6 °F 70% 30.20 in 10.0 mi East 3.5 mph - N/A   Clear
10:15 AM 79.2 °F - 66.2 °F 64% 30.20 in 10.0 mi Calm Calm - N/A   Clear
10:35 AM 80.4 °F 82.7 °F 66.6 °F 63% 30.19 in 10.0 mi Calm Calm - N/A   Clear
10:55 AM 81.5 °F 83.6 °F 66.0 °F 59% 30.19 in 10.0 mi East 5.8 mph - N/A   Clear
11:15 AM 82.8 °F 84.7 °F 65.7 °F 56% 30.19 in 10.0 mi East 3.5 mph - N/A   Clear
11:35 AM 82.8 °F 84.3 °F 64.8 °F 54% 30.19 in 10.0 mi ESE 5.8 mph - N/A   Clear
11:55 AM 83.8 °F 85.1 °F 63.9 °F 51% 30.19 in 10.0 mi SSE 5.8 mph - N/A   Clear
12:15 PM 84.0 °F 84.9 °F 63.1 °F 49% 30.18 in 10.0 mi SSE 6.9 mph - N/A   Clear
12:35 PM 84.7 °F 85.4 °F 62.6 °F 47% 30.17 in 10.0 mi ESE 5.8 mph - N/A   Clear
12:55 PM 84.7 °F 85.4 °F 62.2 °F 47% 30.17 in 10.0 mi SE 5.8 mph - N/A   Clear
1:15 PM 85.6 °F 86.8 °F 63.7 °F 48% 30.16 in 10.0 mi Calm Calm - N/A   Clear
1:35 PM 85.5 °F 85.9 °F 62.1 °F 45% 30.15 in 10.0 mi Calm Calm - N/A   Clear
1:55 PM 86.0 °F 86.8 °F 62.8 °F 46% 30.15 in 10.0 mi ENE 5.8 mph - N/A   Clear
2:15 PM 86.4 °F 87.0 °F 62.6 °F 45% 30.14 in 1.5 mi East 4.6 mph - N/A   Haze
2:35 PM 86.7 °F 86.3 °F 59.5 °F 40% 30.13 in 10.0 mi Calm Calm - N/A   Clear
2:55 PM 87.1 °F 87.0 °F 60.4 °F 41% 30.12 in 10.0 mi SE 4.6 mph - N/A   Clear
3:15 PM 86.9 °F 87.2 °F 61.7 °F 43% 30.12 in 10.0 mi South 5.8 mph - N/A   Clear
3:35 PM 87.3 °F 87.7 °F 62.1 °F 43% 30.11 in 10.0 mi SSE 4.6 mph - N/A   Clear
3:55 PM 86.9 °F 88.1 °F 63.7 °F 46% 30.10 in 10.0 mi ENE 3.5 mph - N/A   Clear
4:15 PM 86.9 °F 88.1 °F 63.9 °F 46% 30.10 in 10.0 mi South 4.6 mph - N/A   Clear
4:35 PM 86.5 °F 87.8 °F 64.0 °F 47% 30.09 in 10.0 mi South 4.6 mph - N/A   Clear
4:55 PM 86.2 °F 87.6 °F 64.4 °F 48% 30.09 in 10.0 mi SSE 6.9 mph - N/A   Clear
5:15 PM 86.0 °F 86.8 °F 63.1 °F 46% 30.09 in 10.0 mi South 5.8 mph - N/A   Clear
5:35 PM 85.6 °F 86.3 °F 62.8 °F 46% 30.09 in 10.0 mi South 5.8 mph - N/A   Clear
5:55 PM 85.1 °F 85.9 °F 62.6 °F 47% 30.09 in 10.0 mi SSE 4.6 mph - N/A   Clear
6:15 PM 83.8 °F 84.7 °F 63.0 °F 49% 30.09 in 10.0 mi SE 4.6 mph - N/A   Clear
6:35 PM 81.9 °F 83.7 °F 65.3 °F 57% 30.09 in 10.0 mi SE 4.6 mph - N/A   Clear
6:55 PM 79.7 °F - 65.5 °F 62% 30.09 in 10.0 mi SE 4.6 mph - N/A   Clear
7:15 PM 77.5 °F - 66.4 °F 68% 30.09 in 7.0 mi SE 4.6 mph - N/A   Clear
7:35 PM 74.5 °F - 67.1 °F 78% 30.08 in 7.0 mi ESE 3.5 mph - N/A   Clear
7:55 PM 73.9 °F - 67.1 °F 79% 30.08 in 7.0 mi Calm Calm - N/A   Clear
8:15 PM 71.6 °F - 67.1 °F 86% 30.09 in 10.0 mi Calm Calm - N/A   Clear
8:35 PM 70.7 °F - 66.9 °F 88% 30.09 in 10.0 mi Calm Calm - N/A   Clear
8:55 PM 68.9 °F - 65.3 °F 88% 30.09 in 10.0 mi Calm Calm - N/A   Clear
9:15 PM 70.3 °F - 66.6 °F 88% 30.09 in 10.0 mi Calm Calm - N/A   Clear
9:35 PM 68.2 °F - 66.0 °F 93% 30.09 in 10.0 mi Calm Calm - N/A   Clear
9:55 PM 67.3 °F - 65.3 °F 93% 30.09 in 7.0 mi Calm Calm - N/A   Clear
10:15 PM 66.4 °F - 65.1 °F 96% 30.08 in 7.0 mi Calm Calm - N/A   Clear
10:35 PM 66.9 °F - 65.8 °F 96% 30.08 in 7.0 mi Calm Calm - N/A   Clear
10:55 PM 66.0 °F - 65.3 °F 98% 30.09 in 7.0 mi Calm Calm - N/A   Clear
11:15 PM 65.7 °F - 64.6 °F 96% 30.09 in 7.0 mi Calm Calm - N/A   Clear
11:35 PM 65.3 °F - 64.9 °F 99% 30.09 in 5.0 mi Calm Calm - N/A   Clear
11:55 PM 65.3 °F - 65.3 °F 100% 30.08 in 4.0 mi Calm Calm - N/A   Clear